TimeCST,TemperatureF,Dew PointF,Humidity,Sea Level PressureIn,VisibilityMPH,Wind Direction,Wind SpeedMPH,Gust SpeedMPH,PrecipitationIn,Events,Conditions,WindDirDegrees,DateUTC
12:53 AM,59.0,51.1,75,30.10,-9999.0,North,5.8,-,N/A,,Unknown,350,2012-11-19 06:53:00
1:53 AM,57.9,50.0,75,30.09,-9999.0,North,6.9,-,N/A,,Unknown,350,2012-11-19 07:53:00
2:53 AM,57.0,50.0,77,30.09,-9999.0,North,5.8,-,N/A,,Unknown,360,2012-11-19 08:53:00
3:53 AM,54.0,48.9,83,30.09,-9999.0,North,5.8,-,N/A,,Unknown,360,2012-11-19 09:53:00
4:53 AM,52.0,46.9,83,30.10,-9999.0,NW,3.5,-,N/A,,Unknown,310,2012-11-19 10:53:00
5:53 AM,52.0,48.0,86,30.11,-9999.0,Calm,Calm,-,N/A,,Unknown,0,2012-11-19 11:53:00
6:53 AM,52.0,46.9,83,30.13,-9999.0,Calm,Calm,-,N/A,,Unknown,0,2012-11-19 12:53:00
7:53 AM,54.0,48.9,83,30.14,-9999.0,WNW,3.5,-,N/A,,Unknown,300,2012-11-19 13:53:00
8:53 AM,60.1,52.0,75,30.16,-9999.0,Calm,Calm,-,N/A,,Unknown,0,2012-11-19 14:53:00
9:53 AM,64.0,52.0,65,30.16,-9999.0,Calm,Calm,-,N/A,,Unknown,0,2012-11-19 15:53:00
10:53 AM,69.1,52.0,54,30.16,-9999.0,SSW,4.6,-,N/A,,Unknown,200,2012-11-19 16:53:00
11:53 AM,72.0,51.1,48,30.14,-9999.0,South,3.5,-,N/A,,Unknown,190,2012-11-19 17:53:00
12:53 PM,75.0,50.0,41,30.11,-9999.0,Calm,Calm,-,N/A,,Unknown,0,2012-11-19 18:53:00
1:53 PM,78.1,48.9,36,30.07,-9999.0,ESE,5.8,-,N/A,,Unknown,120,2012-11-19 19:53:00
2:53 PM,80.1,48.0,32,30.05,-9999.0,Variable,3.5,-,N/A,,Unknown,0,2012-11-19 20:53:00
3:53 PM,80.1,48.0,32,30.05,-9999.0,SE,6.9,-,N/A,,Unknown,130,2012-11-19 21:53:00
4:53 PM,78.1,48.9,36,30.06,-9999.0,ESE,9.2,-,N/A,,Unknown,120,2012-11-19 22:53:00
5:53 PM,73.0,48.9,42,30.08,-9999.0,SE,5.8,-,N/A,,Unknown,130,2012-11-19 23:53:00
6:53 PM,68.0,48.0,49,30.11,-9999.0,ESE,4.6,-,N/A,,Unknown,120,2012-11-20 00:53:00
7:53 PM,64.9,48.0,54,30.12,-9999.0,ENE,4.6,-,N/A,,Unknown,70,2012-11-20 01:53:00
8:53 PM,62.1,48.9,62,30.12,-9999.0,NE,6.9,-,N/A,,Unknown,50,2012-11-20 02:53:00
9:53 PM,62.1,51.1,67,30.12,-9999.0,NE,4.6,-,N/A,,Unknown,40,2012-11-20 03:53:00
10:53 PM,62.1,52.0,70,30.11,-9999.0,NE,4.6,-,N/A,,Unknown,50,2012-11-20 04:53:00
11:53 PM,62.1,52.0,70,30.12,-9999.0,North,8.1,-,N/A,,Unknown,10,2012-11-20 05:53:00